Time,TemperatureF,DewpointF,PressureIn,WindDirection,WindDirectionDegrees,WindSpeedMPH,WindSpeedGustMPH,Humidity,HourlyPrecipIn,Conditions,Clouds,dailyrainin,SoftwareType,DateUTC
2013-06-18 00:09:00,58.8,45.4,30.11,ESE,112,19.7,-999.0,61,-99.99,,,0.03,Acu-Link.com,2013-06-18 06:09:00,
2013-06-18 00:24:00,59.2,45.3,30.10,ESE,112,24.3,-999.0,60,-99.99,,,0.04,Acu-Link.com,2013-06-18 06:24:00,
2013-06-18 00:39:00,59.5,45.2,30.10,ESE,112,15.0,-999.0,59,-99.99,,,0.04,Acu-Link.com,2013-06-18 06:39:00,
2013-06-18 00:54:00,60.6,45.7,30.10,ESE,112,18.1,-999.0,58,-99.99,,,0.04,Acu-Link.com,2013-06-18 06:54:00,
2013-06-18 01:09:00,60.8,45.5,30.10,ESE,112,17.1,-999.0,57,-99.99,,,0.04,Acu-Link.com,2013-06-18 07:09:00,
2013-06-18 01:25:00,61.0,45.2,30.12,ESE,112,11.9,-999.0,56,-99.99,,,0.04,Acu-Link.com,2013-06-18 07:25:00,
2013-06-18 01:40:00,61.2,45.4,30.11,East,90,18.1,-999.0,56,-99.99,,,0.04,Acu-Link.com,2013-06-18 07:40:00,
2013-06-18 01:55:00,61.2,45.4,30.12,East,90,16.6,-999.0,56,-99.99,,,0.04,Acu-Link.com,2013-06-18 07:55:00,
2013-06-18 02:10:00,61.0,45.7,30.12,East,90,18.6,-999.0,57,-99.99,,,0.04,Acu-Link.com,2013-06-18 08:10:00,
2013-06-18 02:25:00,60.4,45.1,30.12,ESE,112,12.5,-999.0,57,-99.99,,,0.04,Acu-Link.com,2013-06-18 08:25:00,
2013-06-18 02:41:00,59.7,44.9,30.13,SE,135,20.2,-999.0,58,-99.99,,,0.04,Acu-Link.com,2013-06-18 08:41:00,
2013-06-18 02:56:00,59.5,45.2,30.14,ESE,112,28.9,-999.0,59,-99.99,,,0.04,Acu-Link.com,2013-06-18 08:56:00,
2013-06-18 03:11:00,58.8,45.8,30.14,ESE,112,18.1,-999.0,62,-99.99,,,0.04,Acu-Link.com,2013-06-18 09:11:00,
2013-06-18 03:26:00,58.5,45.9,30.13,East,90,17.1,-999.0,63,-99.99,,,0.04,Acu-Link.com,2013-06-18 09:26:00,
2013-06-18 03:41:00,58.5,45.9,30.14,ESE,112,10.9,-999.0,63,-99.99,,,0.04,Acu-Link.com,2013-06-18 09:41:00,
2013-06-18 03:56:00,58.3,45.8,30.15,East,90,15.5,-999.0,63,-99.99,,,0.04,Acu-Link.com,2013-06-18 09:56:00,
2013-06-18 04:11:00,58.3,45.8,30.14,ESE,112,8.3,-999.0,63,-99.99,,,0.04,Acu-Link.com,2013-06-18 10:11:00,
2013-06-18 04:26:00,58.3,45.3,30.14,ENE,67,8.9,-999.0,62,-99.99,,,0.04,Acu-Link.com,2013-06-18 10:26:00,
2013-06-18 04:41:00,58.1,45.1,30.15,ESE,112,5.8,-999.0,62,-99.99,,,0.04,Acu-Link.com,2013-06-18 10:41:00,
2013-06-18 04:56:00,57.9,45.0,30.16,ESE,112,9.9,-999.0,62,-99.99,,,0.04,Acu-Link.com,2013-06-18 10:56:00,
2013-06-18 05:11:00,58.3,45.3,30.15,East,90,11.9,-999.0,62,-99.99,,,0.04,Acu-Link.com,2013-06-18 11:11:00,
2013-06-18 05:26:00,58.1,45.1,30.16,ESE,112,6.8,-999.0,62,-99.99,,,0.04,Acu-Link.com,2013-06-18 11:26:00,
2013-06-18 05:41:00,58.3,45.3,30.16,ESE,112,7.8,-999.0,62,-99.99,,,0.04,Acu-Link.com,2013-06-18 11:41:00,
2013-06-18 05:56:00,58.8,45.4,30.17,SSE,157,8.3,-999.0,61,-99.99,,,0.04,Acu-Link.com,2013-06-18 11:56:00,
2013-06-18 06:11:00,59.2,45.8,30.18,ESE,112,9.9,-999.0,61,-99.99,,,0.04,Acu-Link.com,2013-06-18 12:11:00,
2013-06-18 06:27:00,59.7,45.8,30.18,ESE,112,5.8,-999.0,60,-99.99,,,0.04,Acu-Link.com,2013-06-18 12:27:00,
2013-06-18 06:42:00,60.3,45.9,30.18,ESE,112,8.9,-999.0,59,-99.99,,,0.04,Acu-Link.com,2013-06-18 12:42:00,
2013-06-18 06:57:00,60.8,46.4,30.18,ESE,112,5.3,-999.0,59,-99.99,,,0.04,Acu-Link.com,2013-06-18 12:57:00,
2013-06-18 07:12:00,60.6,46.2,30.19,ESE,112,3.7,-999.0,59,-99.99,,,0.04,Acu-Link.com,2013-06-18 13:12:00,
2013-06-18 07:27:00,63.7,48.2,30.18,SSE,157,0.0,-999.0,57,-99.99,,,0.04,Acu-Link.com,2013-06-18 13:27:00,
2013-06-18 07:43:00,65.7,48.6,30.18,SW,225,3.7,-999.0,54,-99.99,,,0.04,Acu-Link.com,2013-06-18 13:43:00,
2013-06-18 07:58:00,66.4,48.2,30.18,WSW,247,3.7,-999.0,52,-99.99,,,0.04,Acu-Link.com,2013-06-18 13:58:00,
2013-06-18 08:13:00,64.6,47.6,30.18,West,270,5.3,-999.0,54,-99.99,,,0.04,Acu-Link.com,2013-06-18 14:13:00,
2013-06-18 08:30:00,66.0,49.4,30.19,NW,315,5.8,-999.0,55,-99.99,,,0.04,Acu-Link.com,2013-06-18 14:30:00,
2013-06-18 08:48:00,65.1,47.5,30.19,NNE,22,5.3,-999.0,53,-99.99,,,0.04,Acu-Link.com,2013-06-18 14:48:00,
2013-06-18 09:03:00,65.8,47.2,30.19,WSW,247,3.2,-999.0,51,-99.99,,,0.04,Acu-Link.com,2013-06-18 15:03:00,
2013-06-18 09:18:00,70.2,49.6,30.18,WNW,292,5.8,-999.0,48,-99.99,,,0.04,Acu-Link.com,2013-06-18 15:18:00,
2013-06-18 09:33:00,69.3,47.6,30.19,SW,225,1.7,-999.0,46,-99.99,,,0.04,Acu-Link.com,2013-06-18 15:33:00,
2013-06-18 09:51:00,70.0,48.8,30.18,NW,315,1.1,-999.0,47,-99.99,,,0.04,Acu-Link.com,2013-06-18 15:51:00,
2013-06-18 10:07:00,72.1,48.4,30.17,WNW,292,0.0,-999.0,43,-99.99,,,0.04,Acu-Link.com,2013-06-18 16:07:00,
2013-06-18 10:22:00,75.9,49.8,30.16,West,270,8.9,-999.0,40,-99.99,,,0.04,Acu-Link.com,2013-06-18 16:22:00,
2013-06-18 10:38:00,74.3,49.7,30.15,SW,225,8.9,-999.0,42,-99.99,,,0.04,Acu-Link.com,2013-06-18 16:38:00,
2013-06-18 10:53:00,76.3,49.5,30.15,West,270,6.3,-999.0,39,-99.99,,,0.04,Acu-Link.com,2013-06-18 16:53:00,
2013-06-18 11:08:00,79.0,49.7,30.16,WSW,247,8.3,-999.0,36,-99.99,,,0.04,Acu-Link.com,2013-06-18 17:08:00,
2013-06-18 11:23:00,77.2,49.6,30.14,West,270,4.7,-999.0,38,-99.99,,,0.04,Acu-Link.com,2013-06-18 17:23:00,
2013-06-18 11:38:00,78.4,48.5,30.14,SW,225,7.8,-999.0,35,-99.99,,,0.04,Acu-Link.com,2013-06-18 17:38:00,
2013-06-18 11:53:00,81.3,50.2,30.13,SW,225,9.9,-999.0,34,-99.99,,,0.04,Acu-Link.com,2013-06-18 17:53:00,
2013-06-18 12:08:00,81.1,49.2,30.12,WNW,292,3.7,-999.0,33,-99.99,,,0.04,Acu-Link.com,2013-06-18 18:08:00,
2013-06-18 12:24:00,81.0,48.3,30.12,WSW,247,8.9,-999.0,32,-99.99,,,0.04,Acu-Link.com,2013-06-18 18:24:00,
2013-06-18 12:39:00,79.3,48.5,30.11,ESE,112,3.2,-999.0,34,-99.99,,,0.04,Acu-Link.com,2013-06-18 18:39:00,
2013-06-18 12:54:00,81.3,48.6,30.10,WSW,247,7.8,-999.0,32,-99.99,,,0.04,Acu-Link.com,2013-06-18 18:54:00,
2013-06-18 13:09:00,83.3,50.3,30.09,WNW,292,9.9,-999.0,32,-99.99,,,0.04,Acu-Link.com,2013-06-18 19:09:00,
2013-06-18 13:24:00,82.9,50.0,30.08,NNE,22,4.2,-999.0,32,-99.99,,,0.04,Acu-Link.com,2013-06-18 19:24:00,
2013-06-18 13:39:00,83.5,49.7,30.08,West,270,5.3,-999.0,31,-99.99,,,0.04,Acu-Link.com,2013-06-18 19:39:00,
2013-06-18 13:54:00,82.2,48.5,30.06,NW,315,8.9,-999.0,31,-99.99,,,0.04,Acu-Link.com,2013-06-18 19:54:00,
2013-06-18 14:10:00,82.8,49.0,30.06,North,0,10.9,-999.0,31,-99.99,,,0.04,Acu-Link.com,2013-06-18 20:10:00,
2013-06-18 14:25:00,84.0,47.4,30.06,WNW,292,11.9,-999.0,28,-99.99,,,0.04,Acu-Link.com,2013-06-18 20:25:00,
2013-06-18 14:41:00,86.9,48.9,30.03,WNW,292,19.1,-999.0,27,-99.99,,,0.04,Acu-Link.com,2013-06-18 20:41:00,
2013-06-18 14:56:00,85.6,46.8,30.03,West,270,11.4,-999.0,26,-99.99,,,0.04,Acu-Link.com,2013-06-18 20:56:00,
2013-06-18 15:11:00,82.4,46.9,30.02,WNW,292,12.5,-999.0,29,-99.99,,,0.04,Acu-Link.com,2013-06-18 21:11:00,
2013-06-18 15:26:00,85.1,40.8,30.00,SW,225,10.9,-999.0,21,-99.99,,,0.04,Acu-Link.com,2013-06-18 21:26:00,
2013-06-18 15:41:00,85.6,42.4,30.00,SW,225,20.7,-999.0,22,-99.99,,,0.04,Acu-Link.com,2013-06-18 21:41:00,
2013-06-18 15:56:00,85.5,39.8,29.99,WSW,247,11.9,-999.0,20,-99.99,,,0.04,Acu-Link.com,2013-06-18 21:56:00,
2013-06-18 16:12:00,85.6,34.2,30.01,WSW,247,10.9,-999.0,16,-99.99,,,0.04,Acu-Link.com,2013-06-18 22:12:00,
2013-06-18 16:27:00,84.9,32.1,29.99,West,270,17.6,-999.0,15,-99.99,,,0.04,Acu-Link.com,2013-06-18 22:27:00,
2013-06-18 16:42:00,85.1,32.2,29.97,West,270,9.4,-999.0,15,-99.99,,,0.04,Acu-Link.com,2013-06-18 22:42:00,
2013-06-18 16:57:00,84.6,33.4,29.97,SW,225,14.0,-999.0,16,-99.99,,,0.04,Acu-Link.com,2013-06-18 22:57:00,
2013-06-18 17:13:00,85.1,35.4,29.96,South,180,12.5,-999.0,17,-99.99,,,0.04,Acu-Link.com,2013-06-18 23:13:00,
2013-06-18 17:28:00,82.4,31.7,29.95,SSW,202,18.1,-999.0,16,-99.99,,,0.04,Acu-Link.com,2013-06-18 23:28:00,
2013-06-18 17:43:00,83.8,34.3,29.95,WSW,247,17.6,-999.0,17,-99.99,,,0.04,Acu-Link.com,2013-06-18 23:43:00,
2013-06-18 17:58:00,83.5,32.6,29.95,WSW,247,18.6,-999.0,16,-99.99,,,0.04,Acu-Link.com,2013-06-18 23:58:00,
2013-06-18 18:13:00,82.2,31.5,29.94,WSW,247,11.9,-999.0,16,-99.99,,,0.04,Acu-Link.com,2013-06-19 00:13:00,
2013-06-18 18:28:00,83.5,32.6,29.95,WSW,247,8.3,-999.0,16,-99.99,,,0.04,Acu-Link.com,2013-06-19 00:28:00,
2013-06-18 18:43:00,82.2,31.5,29.96,WSW,247,6.3,-999.0,16,-99.99,,,0.04,Acu-Link.com,2013-06-19 00:43:00,
2013-06-18 18:58:00,81.7,31.1,29.95,SSW,202,9.4,-999.0,16,-99.99,,,0.04,Acu-Link.com,2013-06-19 00:58:00,
2013-06-18 19:13:00,81.7,32.6,29.93,WSW,247,11.9,-999.0,17,-99.99,,,0.04,Acu-Link.com,2013-06-19 01:13:00,
2013-06-18 19:29:00,80.2,31.4,29.95,SSW,202,10.9,-999.0,17,-99.99,,,0.04,Acu-Link.com,2013-06-19 01:29:00,
2013-06-18 19:44:00,80.2,32.8,29.95,SW,225,7.3,-999.0,18,-99.99,,,0.04,Acu-Link.com,2013-06-19 01:44:00,
2013-06-18 19:59:00,78.6,31.5,29.94,SW,225,8.3,-999.0,18,-99.99,,,0.04,Acu-Link.com,2013-06-19 01:59:00,
2013-06-18 20:14:00,76.6,31.2,29.94,SSW,202,4.2,-999.0,19,-99.99,,,0.04,Acu-Link.com,2013-06-19 02:14:00,
2013-06-18 20:29:00,74.5,32.0,29.94,SSW,202,3.2,-999.0,21,-99.99,,,0.04,Acu-Link.com,2013-06-19 02:29:00,
2013-06-18 20:45:00,74.1,32.8,29.94,SSW,202,4.2,-999.0,22,-99.99,,,0.04,Acu-Link.com,2013-06-19 02:45:00,
2013-06-18 21:00:00,72.0,33.2,29.93,SSW,202,0.0,-999.0,24,-99.99,,,0.04,Acu-Link.com,2013-06-19 03:00:00,
2013-06-18 21:15:00,71.1,35.4,29.95,South,180,1.7,-999.0,27,-99.99,,,0.04,Acu-Link.com,2013-06-19 03:15:00,
2013-06-18 21:30:00,70.3,34.7,29.97,SSW,202,5.3,-999.0,27,-99.99,,,0.04,Acu-Link.com,2013-06-19 03:30:00,
2013-06-18 21:45:00,71.6,35.8,29.98,South,180,4.7,-999.0,27,-99.99,,,0.04,Acu-Link.com,2013-06-19 03:45:00,
2013-06-18 22:01:00,72.0,35.2,29.98,SSE,157,5.8,-999.0,26,-99.99,,,0.04,Acu-Link.com,2013-06-19 04:01:00,
2013-06-18 22:16:00,70.2,34.6,29.97,WSW,247,0.0,-999.0,27,-99.99,,,0.04,Acu-Link.com,2013-06-19 04:16:00,
2013-06-18 22:31:00,68.4,35.8,29.98,NW,315,0.0,-999.0,30,-99.99,,,0.04,Acu-Link.com,2013-06-19 04:31:00,
2013-06-18 22:46:00,66.4,35.6,29.97,NNE,22,2.7,-999.0,32,-99.99,,,0.04,Acu-Link.com,2013-06-19 04:46:00,
2013-06-18 23:02:00,65.3,35.5,29.97,ENE,67,0.0,-999.0,33,-99.99,,,0.04,Acu-Link.com,2013-06-19 05:02:00,
2013-06-18 23:17:00,65.1,36.0,29.97,SE,135,5.3,-999.0,34,-99.99,,,0.04,Acu-Link.com,2013-06-19 05:17:00,
2013-06-18 23:32:00,64.8,35.8,29.96,SE,135,3.7,-999.0,34,-99.99,,,0.04,Acu-Link.com,2013-06-19 05:32:00,
2013-06-18 23:47:00,63.1,35.7,29.96,SSE,157,5.3,-999.0,36,-99.99,,,0.04,Acu-Link.com,2013-06-19 05:47:00,